This demonstration page uses our WeatherBlox Daily Observations layout. Learn more.

Left ArrowRight Arrow

39.01783, -85.05884

Hourly Observations for March 8, 2017

Temp ( °F °C ) Dew Point ( °F °C ) Humidity (%) Winds ( mph kmh ) Pressure ( in mb ) Visibility ( mi km ) Precip ( " mm )
12:52 am 00:52 Clear 42 5.6 33 0.6 71 71 SW 8 13 30.15 1021 10 16 0.00 0.00
1:52 am 01:52 Clear 41 5 32 0 70 70 SW 8 13 30.16 1022 10 16 0.00 0.00
2:52 am 02:52 Clear 41 5 31 -0.6 67 67 SSW 8 13 30.15 1021 10 16 0.00 0.00
3:52 am 03:52 Clear 41 5 30 -1.1 65 65 SSW 8 13 30.14 1021 10 16 0.00 0.00
4:52 am 04:52 Clear 40 4.4 29 -1.7 65 65 SSW 9 15 30.14 1021 10 16 0.00 0.00
5:52 am 05:52 Clear 41 5 28 -2.2 60 60 SSW 12 19 30.14 1021 10 16 0.00 0.00
6:52 am 06:52 Clear 43 6.1 28 -2.2 56 56 WSW 10 17 30.16 1021 10 16 0.00 0.00
7:52 am 07:52 Sunny 44 6.7 29 -1.7 55 55 SW 9 15 30.17 1022 10 16 0.00 0.00
8:52 am 08:52 Sunny 46 7.8 31 -0.6 56 56 SW 9 15 30.19 1022 10 16 0.00 0.00
9:52 am 09:52 Mostly Sunny 49 9.4 29 -1.7 46 46 WSW 12 19 30.21 1023 10 16 0.00 0.00
10:52 am 10:52 Partly Cloudy 52 11.1 30 -1.1 43 43 SW 16 26 30.21 1023 10 16 0.00 0.00
11:52 am 11:52 Mostly Cloudy 55 12.8 24 -4.4 30 30 W 23 37 30.21 1023 10 16 0.00 0.00
12:52 pm 12:52 Mostly Cloudy 57 13.9 21 -6.1 25 25 W 20 31 30.19 1023 10 16 0.00 0.00
1:52 pm 13:52 Mostly Sunny 58 14.4 20 -6.7 23 23 SW 13 20 30.18 1022 10 16 0.00 0.00
2:52 pm 14:52 Mostly Sunny 59 15 20 -6.7 22 22 W 24 39 30.18 1022 10 16 0.00 0.00
3:52 pm 15:52 Mostly Sunny 60 15.6 18 -7.8 19 19 W 22 35 30.18 1022 10 16 0.00 0.00
4:52 pm 16:52 Mostly Sunny 59 15 20 -6.7 22 22 W 12 19 30.18 1022 10 16 0.00 0.00
5:52 pm 17:52 Mostly Sunny 57 13.9 20 -6.7 24 24 WSW 13 20 30.18 1022 10 16 0.00 0.00
6:52 pm 18:52 Clear 54 12.2 21 -6.1 28 28 WSW 8 13 30.18 1022 10 16 0.00 0.00
7:52 pm 19:52 Mostly Cloudy 53 11.7 21 -6.1 28 28 SW 8 13 30.19 1023 10 16 0.00 0.00
8:52 pm 20:52 Mostly Clear 51 10.6 22 -5.6 32 32 SW 8 13 30.20 1023 10 16 0.00 0.00
9:52 pm 21:52 Mostly Clear 50 10 21 -6.1 32 32 SW 7 11 30.20 1023 10 16 0.00 0.00
10:52 pm 22:52 Mostly Clear 48 8.9 21 -6.1 34 34 SSW 8 13 30.21 1023 10 16 0.00 0.00
11:52 pm 23:52 Clear 45 7.2 22 -5.6 40 40 SSW 5 7 30.20 1023 10 16 0.00 0.00

Powered by AerisWeather